UTA520 USTR-UNNT

Flight info

Callsign UTA520
Flight time N/A
Altitude 37000
Route K0811F350 NAPOR1Q NAPOR T448 RUBOR A300 ML R814 SZ W1 GOLIM GOLIM1P
Aircraft B738/M-SDE2E3FGHIRWXY/LB1

Departure

Time 2026-04-20 14:53
Airport Roshchino International Airport (USTR)

Arrival

Time N/A
Airport Novosibirsk Tolmachevo Airport (UNNT)
Time Latitude Longitude Altitude Speed Heading
2026-04-20 14:43 57.18000 65.34744 339 ft 0 kts 313°
2026-04-20 14:44 57.18016 65.34714 336 ft 8 kts 314°
2026-04-20 14:44 57.18072 65.34608 335 ft 16 kts 314°
2026-04-20 14:45 57.18166 65.34434 339 ft 22 kts 315°
2026-04-20 14:45 57.18271 65.34243 337 ft 21 kts 314°
2026-04-20 14:45 57.18372 65.34054 337 ft 20 kts 314°
2026-04-20 14:45 57.18470 65.33873 339 ft 20 kts 315°
2026-04-20 14:46 57.18565 65.33697 336 ft 19 kts 315°
2026-04-20 14:46 57.18619 65.33491 339 ft 18 kts 270°
2026-04-20 14:46 57.18577 65.33285 337 ft 18 kts 225°
2026-04-20 14:46 57.18492 65.33125 332 ft 17 kts 230°
2026-04-20 14:47 57.18475 65.32918 331 ft 17 kts 271°
2026-04-20 14:47 57.18472 65.32710 326 ft 16 kts 268°
2026-04-20 14:47 57.18469 65.32511 327 ft 15 kts 268°
2026-04-20 14:48 57.18461 65.32134 335 ft 15 kts 268°
2026-04-20 14:48 57.18458 65.31931 341 ft 17 kts 268°
2026-04-20 14:48 57.18437 65.31726 351 ft 16 kts 235°
2026-04-20 14:48 57.18362 65.31572 352 ft 16 kts 227°
2026-04-20 14:49 57.18289 65.31425 356 ft 15 kts 227°
2026-04-20 14:49 57.18218 65.31279 364 ft 16 kts 228°
2026-04-20 14:49 57.18134 65.31109 368 ft 19 kts 227°
2026-04-20 14:49 57.18036 65.30912 372 ft 22 kts 227°
2026-04-20 14:50 57.17927 65.30691 373 ft 23 kts 227°
2026-04-20 14:50 57.17819 65.30474 376 ft 23 kts 227°
2026-04-20 14:50 57.17715 65.30264 379 ft 22 kts 227°
2026-04-20 14:50 57.17616 65.30062 381 ft 21 kts 229°
2026-04-20 14:51 57.17519 65.29861 383 ft 21 kts 228°
2026-04-20 14:51 57.17424 65.29670 385 ft 18 kts 227°
2026-04-20 14:51 57.17384 65.29532 386 ft 12 kts 283°
2026-04-20 14:51 57.17435 65.29427 386 ft 11 kts 318°
2026-04-20 14:52 57.17491 65.29341 385 ft 10 kts 332°
2026-04-20 14:52 57.17599 65.29477 385 ft 49 kts 47°
2026-04-20 14:52 57.17998 65.30292 375 ft 119 kts 47°
2026-04-20 14:52 57.18665 65.31654 548 ft 158 kts 49°
2026-04-20 14:53 57.19344 65.33008 1862 ft 131 kts 49°
2026-04-20 14:53 57.19954 65.34281 2564 ft 139 kts 49°
2026-04-20 14:53 57.20675 65.35813 2765 ft 177 kts 46°
2026-04-20 14:53 57.21579 65.37588 3184 ft 202 kts 45°
2026-04-20 14:54 57.22596 65.39627 3439 ft 228 kts 47°
2026-04-20 14:54 57.23697 65.41912 3765 ft 249 kts 46°
2026-04-20 14:54 57.24911 65.44366 4235 ft 265 kts 46°
2026-04-20 14:54 57.26108 65.47033 4989 ft 275 kts 61°
2026-04-20 14:55 57.26581 65.50368 5830 ft 275 kts 94°
2026-04-20 14:55 57.26165 65.53784 6674 ft 274 kts 115°
2026-04-20 14:55 57.25399 65.57031 7455 ft 278 kts 118°
2026-04-20 14:55 57.24585 65.60292 8268 ft 281 kts 118°
2026-04-20 14:56 57.24318 65.61361 8522 ft 282 kts 118°
2026-04-20 14:57 57.20283 65.77954 12121 ft 305 kts 117°
2026-04-20 14:57 57.19395 65.81601 12488 ft 323 kts 118°
2026-04-20 14:57 57.18443 65.85460 12676 ft 346 kts 118°
2026-04-20 14:57 57.17422 65.89601 13021 ft 362 kts 117°
2026-04-20 14:58 57.16372 65.93869 13639 ft 369 kts 117°
2026-04-20 14:58 57.15306 65.98204 14314 ft 373 kts 117°
2026-04-20 14:58 57.14234 66.02560 15020 ft 374 kts 117°
2026-04-20 14:58 57.13154 66.06929 15719 ft 377 kts 117°
2026-04-20 14:59 57.12060 66.11342 16389 ft 380 kts 116°
2026-04-20 14:59 57.11222 66.15981 17008 ft 387 kts 100°
2026-04-20 14:59 57.10879 66.20913 17707 ft 390 kts 97°
2026-04-20 14:59 57.10569 66.25882 18351 ft 393 kts 97°
2026-04-20 15:00 57.10255 66.30844 18850 ft 398 kts 97°
2026-04-20 15:00 57.09921 66.35939 19290 ft 405 kts 98°
2026-04-20 15:00 57.09570 66.41105 19758 ft 410 kts 98°
2026-04-20 15:00 57.09204 66.46337 20252 ft 415 kts 98°
2026-04-20 15:01 57.08826 66.51633 20718 ft 420 kts 98°
2026-04-20 15:01 57.08440 66.56984 21204 ft 425 kts 98°
2026-04-20 15:01 57.08047 66.62401 21654 ft 430 kts 98°
2026-04-20 15:01 57.07647 66.67880 22103 ft 435 kts 99°
2026-04-20 15:02 57.07247 66.73337 22540 ft 440 kts 99°
2026-04-20 15:02 57.06834 66.78942 22974 ft 445 kts 99°
2026-04-20 15:02 57.06416 66.84598 23409 ft 449 kts 99°
2026-04-20 15:02 57.05988 66.90324 23786 ft 454 kts 99°
2026-04-20 15:03 57.04066 67.13192 25338 ft 464 kts 101°
2026-04-20 15:04 57.03555 67.18993 25704 ft 467 kts 101°
2026-04-20 15:04 57.03036 67.24891 26085 ft 470 kts 101°
2026-04-20 15:04 57.02514 67.30823 26462 ft 472 kts 101°
2026-04-20 15:04 57.01988 67.36792 26812 ft 475 kts 101°
2026-04-20 15:05 57.01458 67.42795 27152 ft 478 kts 101°
2026-04-20 15:05 57.00922 67.48821 27489 ft 481 kts 101°
2026-04-20 15:05 57.00379 67.54903 27832 ft 483 kts 101°
2026-04-20 15:05 56.99832 67.60994 28164 ft 486 kts 101°
2026-04-20 15:06 56.99278 67.67130 28483 ft 488 kts 102°
2026-04-20 15:06 56.98719 67.73286 28797 ft 491 kts 102°
2026-04-20 15:06 56.98160 67.79394 29090 ft 494 kts 102°
2026-04-20 15:06 56.97589 67.85607 29382 ft 496 kts 102°
2026-04-20 15:07 56.97011 67.91863 29672 ft 499 kts 102°
2026-04-20 15:07 56.96427 67.98141 29957 ft 501 kts 102°
2026-04-20 15:07 56.95836 68.04453 30209 ft 503 kts 102°
2026-04-20 15:07 56.95242 68.10777 30452 ft 505 kts 102°
2026-04-20 15:08 56.94640 68.17137 30709 ft 507 kts 102°
2026-04-20 15:08 56.94036 68.23491 30976 ft 508 kts 102°
2026-04-20 15:08 56.93426 68.29872 31228 ft 509 kts 102°
2026-04-20 15:08 56.92822 68.36157 31546 ft 508 kts 102°
2026-04-20 15:09 56.92208 68.42509 31895 ft 506 kts 102°
2026-04-20 15:09 56.91592 68.48843 32244 ft 505 kts 102°
2026-04-20 15:09 56.90974 68.55165 32536 ft 505 kts 102°
2026-04-20 15:09 56.90353 68.61484 32814 ft 505 kts 102°
2026-04-20 15:10 56.89728 68.67798 33115 ft 504 kts 103°
2026-04-20 15:10 56.89101 68.74106 33436 ft 503 kts 103°
2026-04-20 15:10 56.88472 68.80392 33745 ft 502 kts 103°
2026-04-20 15:10 56.87841 68.86677 34033 ft 502 kts 103°
2026-04-20 15:11 56.87216 68.92861 34252 ft 502 kts 103°
2026-04-20 15:11 56.86579 68.99133 34460 ft 502 kts 103°
2026-04-20 15:11 56.85938 69.05406 34665 ft 502 kts 103°
2026-04-20 15:11 56.85294 69.11677 34882 ft 502 kts 103°
2026-04-20 15:12 56.84647 69.17950 35095 ft 502 kts 103°
2026-04-20 15:12 56.83998 69.24209 35312 ft 502 kts 103°
2026-04-20 15:12 56.83345 69.30474 35509 ft 502 kts 103°
2026-04-20 15:12 56.82697 69.36662 35711 ft 502 kts 103°
2026-04-20 15:13 56.82038 69.42914 35919 ft 502 kts 103°
2026-04-20 15:13 56.81376 69.49174 36116 ft 502 kts 103°
2026-04-20 15:13 56.80711 69.55427 36296 ft 502 kts 103°
2026-04-20 15:13 56.80041 69.61687 36474 ft 503 kts 103°
2026-04-20 15:14 56.79369 69.67947 36663 ft 502 kts 103°
2026-04-20 15:14 56.78694 69.74190 36858 ft 502 kts 103°
2026-04-20 15:14 56.78017 69.80437 36990 ft 503 kts 103°
2026-04-20 15:15 56.76652 69.92912 36993 ft 505 kts 103°
2026-04-20 15:15 56.75271 70.05429 36993 ft 502 kts 103°
2026-04-20 15:16 56.73886 70.17874 36996 ft 500 kts 103°
2026-04-20 15:16 56.72461 70.30249 36990 ft 498 kts 104°
2026-04-20 15:17 56.70960 70.42476 36993 ft 498 kts 104°
2026-04-20 15:17 56.69432 70.54763 36988 ft 498 kts 104°
2026-04-20 15:18 56.67899 70.67072 36989 ft 500 kts 104°
2026-04-20 15:18 56.66356 70.79414 36989 ft 502 kts 104°
2026-04-20 15:19 56.64806 70.91718 36985 ft 504 kts 104°
2026-04-20 15:19 56.63227 71.04147 36978 ft 506 kts 104°
2026-04-20 15:20 56.61629 71.16605 36974 ft 507 kts 105°
2026-04-20 15:20 56.60016 71.29080 36969 ft 508 kts 105°
2026-04-20 15:21 56.58386 71.41569 36971 ft 509 kts 105°
2026-04-20 15:21 56.56756 71.53956 36967 ft 509 kts 105°
2026-04-20 15:22 56.55103 71.66418 36960 ft 508 kts 105°
2026-04-20 15:22 56.53438 71.78860 36961 ft 508 kts 105°
2026-04-20 15:23 56.51763 71.91276 36962 ft 507 kts 105°
2026-04-20 15:23 56.50090 72.03573 36957 ft 506 kts 105°
2026-04-20 15:24 56.48396 72.15925 36959 ft 505 kts 105°
2026-04-20 15:24 56.46692 72.28246 36956 ft 505 kts 105°
2026-04-20 15:25 56.44976 72.40557 36953 ft 505 kts 105°
2026-04-20 15:25 56.43260 72.52766 36949 ft 505 kts 106°
2026-04-20 15:26 56.41521 72.65051 36950 ft 505 kts 106°
2026-04-20 15:26 56.39770 72.77319 36949 ft 505 kts 106°
2026-04-20 15:27 56.38004 72.89593 36952 ft 505 kts 106°
2026-04-20 15:27 56.36236 73.01794 36947 ft 506 kts 106°
2026-04-20 15:28 56.34442 73.14072 36953 ft 507 kts 106°
2026-04-20 15:28 56.32635 73.26346 36952 ft 507 kts 106°
2026-04-20 15:29 56.30812 73.38637 36948 ft 508 kts 106°
2026-04-20 15:29 56.28990 73.50832 36948 ft 508 kts 106°
2026-04-20 15:30 56.27141 73.63111 36955 ft 508 kts 106°
2026-04-20 15:30 56.25278 73.75390 36953 ft 509 kts 107°
2026-04-20 15:31 56.23419 73.87574 36956 ft 509 kts 107°
2026-04-20 15:31 56.21476 73.99784 36958 ft 508 kts 109°
2026-04-20 15:32 56.19306 74.11856 36955 ft 508 kts 110°
2026-04-20 15:32 56.17092 74.23880 36963 ft 507 kts 110°
2026-04-20 15:33 56.14896 74.35908 36962 ft 507 kts 109°
2026-04-20 15:33 56.12724 74.47855 36966 ft 507 kts 109°
2026-04-20 15:34 56.10533 74.59862 36970 ft 507 kts 109°
2026-04-20 15:34 56.08329 74.71851 36970 ft 507 kts 109°
2026-04-20 15:35 56.06129 74.83740 36975 ft 507 kts 110°
2026-04-20 15:35 56.03901 74.95700 36971 ft 507 kts 110°
2026-04-20 15:36 56.01661 75.07645 36976 ft 507 kts 110°
2026-04-20 15:36 55.99411 75.19568 36978 ft 507 kts 110°
2026-04-20 15:37 55.97149 75.31485 36979 ft 507 kts 110°
2026-04-20 15:37 55.94890 75.43311 36980 ft 507 kts 110°
2026-04-20 15:38 55.92604 75.55201 36985 ft 507 kts 110°
2026-04-20 15:38 55.90306 75.67082 36986 ft 507 kts 110°
2026-04-20 15:39 55.88009 75.78884 36993 ft 507 kts 110°
2026-04-20 15:39 55.85687 75.90747 36991 ft 508 kts 110°
2026-04-20 15:40 55.83350 76.02608 37004 ft 508 kts 110°
2026-04-20 15:40 55.81002 76.14457 36998 ft 508 kts 110°
2026-04-20 15:41 55.78641 76.26299 37004 ft 508 kts 110°
2026-04-20 15:41 55.76283 76.38053 36998 ft 509 kts 110°
2026-04-20 15:42 55.73898 76.49873 37002 ft 509 kts 110°
2026-04-20 15:42 55.71501 76.61681 37010 ft 509 kts 110°
2026-04-20 15:43 55.69107 76.73401 37008 ft 509 kts 111°
2026-04-20 15:43 55.66685 76.85191 37008 ft 509 kts 111°
2026-04-20 15:44 55.64253 76.96966 37009 ft 509 kts 111°
2026-04-20 15:44 55.61810 77.08719 37012 ft 509 kts 111°
2026-04-20 15:45 55.59371 77.20384 37017 ft 509 kts 111°
2026-04-20 15:45 55.56906 77.32109 37021 ft 509 kts 111°
2026-04-20 15:46 55.54430 77.43818 37018 ft 509 kts 111°
2026-04-20 15:46 55.51943 77.55508 37024 ft 509 kts 111°
2026-04-20 15:47 55.49463 77.67104 37022 ft 509 kts 111°
2026-04-20 15:47 55.46955 77.78761 37023 ft 508 kts 111°
2026-04-20 15:48 55.44437 77.90399 37023 ft 508 kts 111°
2026-04-20 15:48 55.41907 78.02033 37026 ft 508 kts 111°
2026-04-20 15:49 55.39385 78.13561 37035 ft 508 kts 111°
2026-04-20 15:49 55.36836 78.25161 37029 ft 509 kts 111°
2026-04-20 15:50 55.34997 78.37121 37036 ft 507 kts 96°
2026-04-20 15:50 55.34068 78.49388 37031 ft 507 kts 95°
2026-04-20 15:51 55.33164 78.61588 37039 ft 507 kts 96°
2026-04-20 15:51 55.32188 78.73876 37038 ft 508 kts 96°
2026-04-20 15:52 55.31170 78.86153 37038 ft 509 kts 96°
2026-04-20 15:52 55.30133 78.98441 37042 ft 509 kts 96°
2026-04-20 15:53 55.28565 79.16788 37042 ft 509 kts 96°
2026-04-20 15:53 55.27501 79.29080 37050 ft 510 kts 97°
2026-04-20 15:54 55.26424 79.41361 37029 ft 510 kts 97°
2026-04-20 15:54 55.25878 79.47547 36539 ft 516 kts 97°
2026-04-20 15:54 55.25325 79.53759 36011 ft 514 kts 97°
2026-04-20 15:55 55.24779 79.59861 35418 ft 514 kts 97°
2026-04-20 15:55 55.24221 79.66055 34797 ft 514 kts 97°
2026-04-20 15:55 55.23660 79.72244 34177 ft 515 kts 97°
2026-04-20 15:55 55.23095 79.78448 33468 ft 516 kts 97°
2026-04-20 15:56 55.22526 79.84664 32757 ft 517 kts 97°
2026-04-20 15:56 55.21952 79.90884 32061 ft 517 kts 97°
2026-04-20 15:56 55.21376 79.97102 31364 ft 517 kts 97°
2026-04-20 15:56 55.20796 80.03323 30658 ft 518 kts 98°
2026-04-20 15:57 55.20220 80.09459 29918 ft 519 kts 98°
2026-04-20 15:57 55.19633 80.15690 29048 ft 519 kts 98°
2026-04-20 15:57 55.19042 80.21919 28228 ft 518 kts 98°
2026-04-20 15:57 55.18450 80.28130 27414 ft 517 kts 98°
2026-04-20 15:58 55.17857 80.34304 26863 ft 510 kts 99°
2026-04-20 15:58 55.17270 80.40390 26242 ft 506 kts 99°
2026-04-20 15:58 55.16686 80.46417 25668 ft 500 kts 99°
2026-04-20 15:58 55.16104 80.52382 25119 ft 495 kts 99°
2026-04-20 15:59 55.15534 80.58205 24587 ft 490 kts 99°
2026-04-20 15:59 55.14958 80.64049 24047 ft 485 kts 100°
2026-04-20 15:59 55.14386 80.69830 23487 ft 480 kts 100°
2026-04-20 15:59 55.13819 80.75538 22879 ft 475 kts 100°
2026-04-20 16:00 55.13253 80.81198 22288 ft 470 kts 100°
2026-04-20 16:00 55.12691 80.86806 21701 ft 466 kts 100°